Status Flugplatz

Der Flugplatz ist offen
PPR Regelung ! PJE !!!

123.15 MHz
RWY 05/23

flüger beizli - Öffnungszeiten
Freitag ab 16:00
Samstag +Sonntag ab 11:00
Bei schönem Wetter öffnen wir früher! Tel.: 079 234 07 74

Herzlich willkommen auf der Homepage des Flugplatz Biel-Kappelen

Wir freuen uns über Ihren Besuch auf unserem schönen Flugplatz im Berner Seeland. Ob zu Fuss, per Velo, Motorrad, Auto oder Flugzeug Sie sind uns jederzeit herzlich willkommen.

 

 

 


 

Wetter Kappelen

 


 

[source: ADDS]
METAR
LSZG 301250Z 09015KT 9999 BKN052 25/14 Q1021 NOSIG =
TAF
TAF LSZG 301125Z 3012/3021 09016KT 9999 SCT045 BECMG 3013/3016 CAVOK BECMG 3017/3020 VRB03KT =
SR / SS: 04:49 / 18:15 UTC ( 2016-08-30)

 


 

Besucherzähler

HeuteHeute68
Seit BeginnSeit Beginn70850
Guests 2

Flugplatz Biel-Kappelen LSZP - 123.15MHz - 032 384 46 84

Email: Diese E-Mail-Adresse ist vor Spambots geschützt! Zur Anzeige muss JavaScript eingeschaltet sein!
www.lszp.ch
2013 © by mb

Zum Anfang